www.pogodaiklimat.ru
ПОГОДА в Вильнюс аэропорту

Архив погоды в Вильнюс аэропорту (Литва)

Время
(UTC), дата
16 10.07
17 10.07
18 10.07
19 10.07
20 10.07
21 10.07
22 10.07
23 10.07
00 11.07
01 11.07
02 11.07
03 11.07
04 11.07
05 11.07
06 11.07
07 11.07
08 11.07
09 11.07
10 11.07
11 11.07
12 11.07
13 11.07
14 11.07
15 11.07
16 11.07
17 11.07
18 11.07
19 11.07
20 11.07
21 11.07
22 11.07
23 11.07
00 12.07
01 12.07
02 12.07
03 12.07
04 12.07
05 12.07
06 12.07
07 12.07
08 12.07
09 12.07
10 12.07
11 12.07
12 12.07
13 12.07
14 12.07
15 12.07
16 12.07
17 12.07
18 12.07
19 12.07
20 12.07
21 12.07
22 12.07
23 12.07
00 13.07
01 13.07
02 13.07
03 13.07
04 13.07
05 13.07
06 13.07
07 13.07
08 13.07
09 13.07
10 13.07
11 13.07
12 13.07
13 13.07
14 13.07
15 13.07
16 13.07
17 13.07
18 13.07
19 13.07
20 13.07
21 13.07
22 13.07
23 13.07
00 14.07
01 14.07
02 14.07
03 14.07
04 14.07
05 14.07
06 14.07
07 14.07
08 14.07
09 14.07
10 14.07
11 14.07
12 14.07
13 14.07
14 14.07
15 14.07
16 14.07
17 14.07
18 14.07
19 14.07
20 14.07
21 14.07
22 14.07
23 14.07
00 15.07
01 15.07
02 15.07
03 15.07
04 15.07
05 15.07
06 15.07
07 15.07
08 15.07
09 15.07
10 15.07
11 15.07
12 15.07
13 15.07
14 15.07
15 15.07
16 15.07
17 15.07
18 15.07
19 15.07
20 15.07
21 15.07
22 15.07
23 15.07
00 16.07
01 16.07
02 16.07
03 16.07
04 16.07
05 16.07
06 16.07
07 16.07
08 16.07
09 16.07
10 16.07
11 16.07
12 16.07
13 16.07
14 16.07
15 16.07
16 16.07
17 16.07
18 16.07
19 16.07
20 16.07
21 16.07
22 16.07
23 16.07
00 17.07
01 17.07
02 17.07
03 17.07
04 17.07
05 17.07
06 17.07
07 17.07
08 17.07
09 17.07
10 17.07
11 17.07
12 17.07
13 17.07
14 17.07
15 17.07
00 31.07
Ветер
(напр.,м/с)
Видим. Явления Облачность Т
(С)
Тd
(С)
f
(%)
Тe
(С)
Тes
(С)
Комфортность P
(гПа)
Po
(гПа)
Тmin
(С)
Tmax
(С)
R
(мм)
R24
(мм)
S
(см)
ЮВ 4 10 км ясно +27.0 +12.0 39 +28 +32 жарко 1022.0 999.4
ЮВ 4 10 км ясно +26.0 +12.0 42 +27 +29 жарко 1022.0 999.3
ЮВ 3-4 {9} 10 км 3/0
[Ci fib]
+24.3 +12.9 50 +26 +27 жарко 1021.5 999.5 +27.5
ЮВ 3 10 км ясно +22.0 +12.0 53 +24 +24 комфорт 1022.0 999.0
ЮВ 4 10 км ясно +21.0 +11.0 53 +23 +23 комфорт 1022.0 998.9
ЮВ 5-6 {6} 10 км ясно +21.1 +10.7 53 +23 +23 комфорт 1021.7 999.5
ЮВ 4 10 км ясно +20.0 +11.0 56 +22 +22 комфорт 1022.0 998.8
ЮВ 4 10 км ясно +20.0 +11.0 56 +22 +22 комфорт 1022.0 998.8
ЮВ 5-6 {7} 10 км ясно +19.3 +11.1 60 +20 +20 1021.0 998.7
ЮВ 5 10 км ясно +19.0 +11.0 60 +20 +20 1021.0 997.8
ЮВ 6 10 км ясно +19.0 +10.0 56 +19 +19 1021.0 997.8
ЮВ 6-7 {9} 10 км 6/0
[Ci]
+19.1 +11.2 60 +20 +20 1020.0 997.7
ЮВ 4 10 км ясно +20.0 +12.0 60 +22 +22 комфорт 1020.0 996.9
ЮВ 5 10 км ясно +21.0 +13.0 60 +24 +24 комфорт 1020.0 997.0
ЮВ 6-8 {9} 10 км 8/0
[Ci]
+22.3 +14.5 64 +25 +27 комфорт 1019.3 997.3 +18.5
Ю 4 10 км ясно +25.0 +17.0 61 +29 +33 душно 1020.0 997.3
Ю 5 10 км ясно +26.0 +18.0 61 +30 +35 душно 1020.0 997.4
ЮВ 5-7 {8} 10 км 4/0
[Ci fib]
+27.0 +19.0 62 +32 +39 очень душно 1019.0 996.5
ЮВ 6 10 км 2/2 1200 м +28.0 +19.0 58 +33 +38 очень душно 1018.0 995.6
Ю 7 10 км 5/5 1050 м +29.0 +19.0 55 +34 +37 очень душно 1017.0 994.7
Ю 8-11 {12} 10 км 6/4 1380 м
[Cu hum Ci]
+29.2 +18.3 51 +33 +36 очень душно 1016.2 994.8
ЮВ 7 10 км ясно +29.0 +19.0 55 +34 +38 очень душно 1016.0 993.7
Ю 6 10 км 5/5 1470 м +29.0 +19.0 55 +34 +37 очень душно 1016.0 993.7
ЮВ 6-9 {11} 10 км 3/3 1500 м
[Cu hum]
+29.7 +18.7 52 +35 +39 очень душно 1014.4 993.1
нст 15 10 км 8/8 1740 м +28.0 +18.0 55 +33 +33 очень душно 1017.0 994.6
нст 15 10 км ливневой дождь 8/8 1500 м
[Cb]
+24.0 +16.0 61 +27 +27 жарко 1017.0 994.3
СВ 2-15 {13} 10 км в посл. час ливневой дождь 9/9 1470 м
[Cb cap]
+22.4 +16.1 69 +26 +26 жарко 1016.5 994.5 +30.1 0.0
нст 10-15 10 км гроза без осадков 8/8 840 м
[Cb]
+22.0 +18.0 78 +27 +27 душно 1017.0 994.2
В 4 10 км гроза, ливневой дождь 8/8 1500 м
[Cb]
+20.0 +20.0 100 +24 +24 комфорт 1016.0 993.1
ЮВ 2-3 {14} 10 км гроза, ливневой дождь 8/5 1500 м
[Cb cap Ac und]
+19.1 +18.8 100 +22 +22 комфорт 1016.0 993.8
Ю 4 10 км слаб. ливневой дождь 8/8 1650 м
[Cb]
+19.0 +19.0 100 +21 +21 комфорт 1016.0 993.0
ЮВ 4 10 км слаб. ливневой дождь 8/8 1500 м
[Cb]
+19.0 +19.0 100 +21 +21 комфорт 1016.0 993.0
ЮЗ 3-4 {14} 10 км слаб. ливневой дождь {гроза} 8/6 1500 м
[Cb cap Ac trans]
+18.4 +18.1 100 +18 +18 1016.1 993.9
ЮВ 4 10 км 8/8 60 м +18.0 +18.0 100 +18 +18 1014.0 990.9
Ю 3 10 км слаб. ливневой дождь 8/8 1620 м
[Cb]
+18.0 +18.0 100 +18 +18 1015.0 991.9
ЮЗ 2-4 {5} 10 км слаб. ливневой дождь 9/9 1500 м
[Cb cap]
+19.0 +19.0 100 +21 +21 комфорт 1016.0 993.0
ЮЗ 2 10 км 8/8 90 м +19.0 +19.0 100 +21 +21 комфорт 1016.0 993.0
З 2 10 км 8/8 150 м +19.0 +19.0 100 +21 +22 комфорт 1016.0 993.0
СЗ 3-5 {5} 10 км {ливн. дождь} 9/9 180 м
[St]
+20.4 +19.1 94 +23 +24 комфорт 1015.9 993.8 +17.9 17
СЗ 4 10 км 8/8 330 м +21.0 +18.0 83 +25 +26 комфорт 1016.0 993.1
СЗ 3 10 км 8/8 360 м +22.0 +19.0 83 +27 +29 душно 1016.0 993.2
СЗ 2-5 {6} 10 км 8/8 480 м
[Cu hum]
+22.9 +17.6 73 +28 +31 душно 1016.2 994.3
С 3 10 км 8/8 720 м +24.0 +17.0 65 +28 +30 душно 1016.0 993.3
СЗ 3 10 км 5/5 870 м +25.0 +17.0 61 +29 +35 душно 1016.0 993.4
СЗ 3-5 {6} 10 км 5/5 930 м
[Cu hum]
+26.2 +17.7 61 +30 +37 душно 1015.2 993.6
З 2 10 км 5/5 1140 м +26.0 +17.0 58 +30 +37 душно 1016.0 993.5
З 2 10 км ясно +27.0 +16.0 51 +30 +42 душно 1016.0 993.6
ЮЗ 2-3 {6} 10 км 8/5 1500 м
[Cu hum Ci]
+26.8 +16.5 54 +31 +39 душно 1014.6 993.0
нст 2 10 км 5/5 1230 м +27.0 +17.0 54 +31 +33 душно 1015.0 992.6
СЗ 3 10 км 5/5 1260 м +27.0 +17.0 54 +31 +32 душно 1015.0 992.6
С 2-3 {6} 10 км 8/5 1440 м
[Sc Ci fib]
+25.8 +16.4 54 +29 +30 душно 1014.1 992.5 +27.3
В 1 10 км 5/5 1350 м +24.0 +17.0 65 +28 +28 душно 1015.0 992.4
нст 1 10 км 8/8 1470 м +23.0 +17.0 69 +28 +28 душно 1015.0 992.3
В 2-3 {3} 10 км 6/0
[Ci fib]
+22.5 +17.4 69 +28 +28 душно 1014.5 992.6
В 2 10 км ясно +22.0 +17.0 73 +26 +26 душно 1014.0 991.2
В 2 10 км ясно +21.0 +17.0 78 +26 +26 душно 1014.0 991.2
В 2-3 {4} 10 км 8/0
[Ci fib]
+20.8 +17.0 78 +26 +26 душно 1013.4 991.4
нст 1 10 км ясно +21.0 +17.0 78 +26 +26 душно 1013.0 990.2
В 2 10 км ясно +21.0 +17.0 78 +26 +26 душно 1013.0 990.2
В 4-6 {6} 10 км 6/0
[Ci fib]
+20.7 +16.6 78 +25 +25 комфорт 1012.3 990.3
В 4 10 км ясно +22.0 +18.0 78 +27 +27 душно 1012.0 989.3
В 4 10 км ясно +23.0 +20.0 83 +30 +31 очень душно 1011.0 988.4
В 5-7 {7} 10 км 8/3 1500 м
[Cb cap Ac und]
+24.8 +19.9 74 +31 +32 очень душно 1010.0 988.4 +20.4
нст 13 10 км гроза без осадков 5/5 150 м
[Cb]
+25.0 +20.0 74 +31 +31 очень душно 1010.0 987.6
С 3 н/о гроза, ливневой дождь 8/8 690 м
[Cb]
+21.0 +21.0 100 +27 +28 душно 1011.0 988.3
СЗ 6-8 {9} 10 км в посл. час ливневой дождь {гроза} 9/9 1500 м
[Cb cap]
+22.6 +21.9 94 +31 +32 очень душно 1009.7 988.0
С 4 10 км 2/2 900 м +23.0 +22.0 94 +31 +39 очень душно 1010.0 987.5
СВ 4 10 км 5/5 990 м +25.0 +24.0 94 +34 +40 очень душно 1009.0 986.7
СВ 2-3 {9} 10 км {гроза, ливн. дождь} 9/9 630 м
[Cb cap]
+25.7 +23.6 89 +36 +48 очень душно 1008.2 986.8
ЮВ 4 10 км ясно +28.0 +21.0 66 +35 +45 очень душно 1008.0 985.9
Ю 4 10 км ясно +29.0 +22.0 66 +37 +45 очень душно 1008.0 985.9
ЮЗ 6-8 {9} 10 км 9/6 1320 м
[Cu Sc Ci]
+29.2 +19.6 58 +35 +38 очень душно 1006.9 985.7
ЮЗ 5 10 км ясно +29.0 +21.0 62 +36 +39 очень душно 1008.0 985.9
ЮЗ 6 10 км 2/2 1650 м +29.0 +16.0 45 +32 +33 душно 1009.0 986.9
З 8-9 {12} 10 км 8/4 1500 м
[Sc diur, vesp Ci fib]
+27.0 +18.1 58 +32 +32 очень душно 1008.7 987.3 +29.4 5
З 5 10 км ясно +25.0 +17.0 61 +29 +29 душно 1010.0 987.6
З 4 10 км ясно +24.0 +17.0 65 +28 +28 душно 1011.0 988.5
З 3-5 {11} 10 км 8/0
[Ac und Ci fib]
+22.8 +16.8 69 +28 +28 душно 1011.2 989.4
Ю 3 10 км ясно +20.0 +17.0 83 +23 +23 комфорт 1012.0 989.1
З 3 10 км ясно +22.0 +17.0 73 +26 +26 душно 1013.0 990.3
СЗ 3-5 {11} 10 км 8/0
[Ac trans Ci fib]
+20.4 +17.3 83 +23 +23 комфорт 1012.9 990.9
С 3 10 км ясно +19.0 +17.0 88 +21 +21 комфорт 1013.0 990.0
СЗ 2 10 км ясно +19.0 +17.0 88 +21 +21 комфорт 1014.0 991.0
С 2-3 {5} 10 км 6/0
[Ci fib]
+18.1 +16.8 94 +19 +19 1014.0 991.8
С 3 10 км ясно +19.0 +16.0 83 +21 +21 комфорт 1015.0 992.0
С 2 10 км 8/8 540 м +19.0 +16.0 83 +21 +21 комфорт 1015.0 992.0
З 1-3 {5} 10 км 9/9 480 м
[Sc]
+19.6 +16.1 78 +23 +24 комфорт 1015.5 993.4 +17.6
нст 2 10 км 8/8 540 м +21.0 +15.0 69 +25 +26 комфорт 1016.0 993.1
Ю 2 10 км 8/8 690 м +22.0 +16.0 69 +26 +28 душно 1016.0 993.2
СВ 1-2 {6} 10 км 8/5 1000 м
[Cu hum Ac und Ci]
+22.3 +15.9 69 +26 +40 жарко 1014.9 993.0
нст 1 10 км ясно +23.0 +16.0 65 +27 +44 душно 1015.0 992.3
ЮЗ 2 10 км 5/5 1410 м +22.0 +16.0 69 +26 +34 душно 1016.0 993.2
ЮЗ 1-3 {6} 10 км 9/5 1000 м
[Cu hum Ac und]
+22.9 +16.4 65 +27 +36 душно 1015.1 993.2
СЗ 4 10 км слаб. ливневой дождь 8/8 900 м
[Cb]
+22.0 +17.0 73 +26 +28 душно 1016.0 993.2
СЗ 4 10 км 2/2 900 м +22.0 +17.0 73 +26 +32 душно 1015.0 992.2
СЗ 4-7 {10} 10 км {ливн. дождь} 9/9 1320 м
[Cu med, cong]
+21.7 +15.7 69 +26 +27 душно 1015.1 993.1
СЗ 4 10 км ясно +22.0 +15.0 64 +25 +29 комфорт 1015.0 992.2
С 3 10 км ясно +22.0 +16.0 69 +26 +28 душно 1015.0 992.2
С 3-4 {10} 10 км {ливн. дождь, дождь} 8/0
[Ac und Ci]
+21.2 +14.7 69 +25 +25 комфорт 1015.4 993.4 +23.2 0.0
СЗ 3 10 км ясно +20.0 +14.0 68 +22 +22 комфорт 1016.0 993.0
СЗ 2 10 км ясно +19.0 +14.0 73 +21 +21 комфорт 1016.0 992.9
СВ 2-3 {5} 10 км 6/0
[Ac und]
+17.8 +13.9 77 +19 +19 1016.6 994.3
С 3 10 км ясно +18.0 +14.0 77 +18 +18 1017.0 993.8
СВ 2 10 км ясно +16.0 +14.0 88 +16 +16 1017.0 993.7
нст 1-3 {5} 10 км 6/0
[Ac trans]
+16.0 +13.0 82 +17 +17 1016.0 992.7
нст 1 10 км ясно +15.0 +13.0 88 +15 +15 1017.0 993.6
С 2 10 км ясно +15.0 +14.0 94 +15 +15 1017.0 993.6
СВ 2-3 {3} 10 км 4/0
[Ac trans]
+16.1 +13.8 88 +16 +16 1016.9 994.4
В 2 10 км ясно +17.0 +14.0 82 +17 +18 1017.0 993.7
СВ 2 10 км ясно +19.0 +14.0 73 +21 +22 комфорт 1017.0 993.9
СВ 2-3 {4} 10 км 9/9 1140 м
[Sc]
+18.6 +14.7 78 +21 +22 комфорт 1017.3 995.0 +14.4
СВ 2 10 км 8/8 1110 м +19.0 +16.0 83 +21 +22 комфорт 1017.0 993.9
СВ 3 10 км 8/8 1080 м +21.0 +15.0 69 +25 +26 комфорт 1017.0 994.1
СВ 3-4 {4} 10 км 9/3 1140 м
[Cu hum Ac und]
+21.0 +15.0 69 +25 +30 комфорт 1017.0 994.1
В 2 10 км 8/8 1200 м +22.0 +16.0 69 +26 +29 душно 1017.0 994.2
СВ 2 10 км 8/8 1410 м +23.0 +16.0 65 +27 +31 душно 1017.0 994.2
СВ 2-3 {5} 10 км 9/4 1500 м
[Sc Ac trans]
+23.3 +15.3 61 +27 +42 душно 1016.4 994.5
СВ 2 10 км 8/8 1470 м +24.0 +17.0 65 +28 +31 душно 1016.0 993.3
нст 1 10 км ясно +25.0 +17.0 61 +29 +42 душно 1016.0 993.4
В 2-4 {4} 10 км 8/5 1000 м
[Cu med, cong Ac trans]
+23.9 +17.1 65 +28 +31 душно 1015.7 993.9
С 3 10 км 8/8 1050 м +25.0 +17.0 61 +29 +30 душно 1016.0 993.4
СВ 2 10 км ясно +23.0 +17.0 69 +28 +31 душно 1016.0 993.3
СВ 2-3 {4} 10 км 4/4 1500 м
[Cu med, cong]
+23.0 +16.9 69 +28 +29 душно 1015.8 993.9 +25.0
нст 1 10 км ясно +22.0 +16.0 69 +26 +26 душно 1016.0 993.2
нст 1 10 км ясно +21.0 +15.0 69 +25 +25 комфорт 1016.0 993.1
С 1-2 {3} 10 км ясно +17.8 +15.6 88 +19 +19 1016.7 994.4
нст 1 10 км ясно +18.0 +16.0 88 +19 +19 1017.0 993.8
З 1 10 км ясно +18.0 +17.0 94 +19 +19 1017.0 993.9
С 1-2 {3} 10 км ясно +16.6 +16.4 94 +18 +18 1017.1 994.7
нст 1 10 км ясно +16.0 +16.0 100 +17 +17 1017.0 993.7
нст 1 10 км туман, небо видно ясно +17.0 +17.0 100 +18 +18 1017.0 993.8
С 1-2 {2} 10 км 3/0
[Ac und]
+16.4 +16.2 100 +17 +17 1017.3 994.9
нст 1 10 км ясно +19.0 +18.0 94 +22 +22 комфорт 1017.0 993.9
В 2 10 км ясно +21.0 +18.0 83 +26 +27 душно 1018.0 995.1
ЮВ 2-3 {3} 10 км 6/0
[Ci]
+22.8 +18.2 73 +28 +32 душно 1017.5 995.6 +15.3
Ю 2 10 км ясно +24.0 +18.0 69 +28 +34 душно 1018.0 995.3
нст 2 10 км ясно +26.0 +17.0 58 +30 +39 душно 1018.0 995.4
ЮВ 2-4 {4} 10 км 4/3 1500 м
[Cu hum Ci fib]
+26.1 +16.8 58 +30 +42 душно 1016.9 995.2
нст 2 10 км ясно +27.0 +15.0 48 +30 +44 душно 1017.0 994.5
нст 2 10 км ясно +28.0 +15.0 45 +31 +46 душно 1017.0 994.6
В 3-5 {5} 10 км 4/3 1500 м
[Cu hum Ci fib]
+28.0 +15.4 45 +31 +43 душно 1016.0 994.5
ЮВ 3 10 км ясно +28.0 +15.0 45 +31 +42 душно 1016.0 993.6
ЮВ 3 10 км ясно +29.0 +15.0 43 +32 +41 душно 1016.0 993.7
ЮВ 4-5 {6} 10 км 4/0
[Ci fib]
+28.4 +15.0 45 +31 +36 душно 1014.6 993.1
ЮВ 4 10 км ясно +28.0 +15.0 45 +31 +34 душно 1015.0 992.6
ЮВ 3 10 км ясно +27.0 +15.0 48 +30 +32 душно 1014.0 991.6
В 3-4 {6} 10 км 6/0
[Ac und Ci]
+25.0 +15.4 54 +28 +29 жарко 1014.3 992.6 +28.8
В 3 10 км ясно +24.0 +15.0 57 +27 +27 жарко 1015.0 992.3
В 4 10 км ясно +24.0 +14.0 54 +26 +26 жарко 1014.0 991.4
В 4-6 {6} 10 км 6/0
[Ac trans Ci fib]
+23.2 +14.8 61 +27 +27 душно 1013.7 991.9
В 5 10 км ясно +23.0 +16.0 65 +27 +27 душно 1013.0 990.3
ЮВ 3 10 км гроза без осадков 8/8 1350 м
[Cb]
+23.0 +16.0 65 +27 +27 душно 1013.0 990.3
З 2 10 км 2/2 1860 м
[Cb]
+21.0 +18.0 83 +26 +26 душно 1014.0 991.2
С 2 10 км слаб. ливневой дождь 8/8 1260 м
[Cb]
+20.0 +20.0 100 +24 +24 комфорт 1014.0 991.1
СВ 2 н/о слаб. ливневой дождь 8/8 1500 м
[Cb]
+20.0 +20.0 100 +24 +24 комфорт 1014.0 991.1
Ю 2-3 {5} 7000 м дымка {ливн. дождь} 10/0
[Ac As]
+19.4 +19.1 100 +21 +21 комфорт 1013.4 991.3
Ю 3 10 км 5/5 1740 м +20.0 +20.0 100 +24 +24 комфорт 1014.0 991.1
ЮЗ 4 10 км 8/8 1260 м +21.0 +20.0 94 +26 +26 душно 1015.0 992.2
ЮЗ 5-6 {7} 10 км {ливн. дождь, дождь} 6/6 700 м
[Sc]
+22.0 +20.4 88 +28 +29 душно 1014.8 992.9 +19.3
ЮЗ 5 10 км 8/8 300 м +22.0 +20.0 88 +28 +28 душно 1016.0 993.2
З 5 10 км 8/8 360 м +22.0 +20.0 88 +28 +29 душно 1016.0 993.2
З 4-6 {9} 10 км 6/6 570 м
[Cu Sc]
+23.7 +19.7 78 +29 +31 душно 1016.0 994.2
З 5 10 км 5/5 600 м +26.0 +19.0 65 +31 +35 очень душно 1017.0 994.5
З 4 10 км 5/5 870 м +26.0 +18.0 61 +30 +36 душно 1017.0 994.5
З 5-7 {9} 15 км 6/6 1050 м
[Cu hum]
+26.2 +16.5 58 +30 +34 душно 1016.7 995.0
З 5 10 км 5/5 1290 м +27.0 +16.0 51 +30 +34 душно 1017.0 994.5
СЗ 3 10 км 2/2 1290 м +27.0 +17.0 54 +31 +38 душно 1017.0 994.5
З 4-5 {8} 10 км 6/4 1500 м
[Cu hum Ci]
+26.9 +15.9 51 +30 +36 душно 1016.3 994.7
Ю 4 10 км ясно +23.0 +17.0 69 +28 +28 душно 1006.0 983.5
Местоположение метеостанции Вильнюс аэропорт (Литва): широта 54.63 долгота 25.28 высота над уровнем моря 197 м.
В архиве по умолчанию представлена погода в Вильнюс аэропорту за последнюю неделю. Архивные данные за месяц целиком и за предыдущие месяцы, начиная с января 2011 года, Вы можете получить, выбрав интересующий диапазон дат из раскрывающегося списка и нажав кнопку "Найти!".
*Определитесь, кто Вы:
Внимание! Время в таблицах - всемирное. Для получения местного времени необходимо прибавить поправку, которая равна 2 ч.
Некоторые строки с данными для отдельных станций могут быть выделены курсивом. Это означает, что фактические данные отсутствуют по различным причинам, а приведенные значения являются расчетными модельными данными для данного пункта наблюдений.
Смотрите также архив погоды в соседних городах и на ближайших метеорологических станциях:
Партнеры нашего сайта:      
Пояснения к столбцам:
  • Ветер - указаны скорость ветра в м/с - средняя за 10 мин, порывы в срок и между сроками (в фигурных скобках) и направление, откуда дует ветер: С - северный,
  • СВ - северо-восточный, В - восточный, ЮВ - юго-восточный, Ю - южный, ЮЗ - юго-западный, З - западный, СЗ - северо-западный.
  • Видимость - горизонтальная дальность видимости в метрах или километрах. При видимости от 1 до 10 км при отсутствии осадков обычно наблюдается дымка, при ухудшении видимости до 1 км и менее - туман. В сухую погоду видимость может ухудшаться дымом, пылью или мглою.
  • Явления - указаны атмосферные явления, наблюдавшиеся в срок или в последний час перед сроком; фигурными скобками обозначены явления, наблюдавшиеся между сроками (за 1-3 часа до срока); квадратными скобками обозначены град или гололедные отложения с указанием их диаметра в мм.
  • Облачность - указаны через наклонную черту общая и нижняя облачность в баллах и высота нижней границы облаков в метрах; квадратными скобками обозначены формы облаков: Ci - перистые, Cs - перисто-слоистые, Cc - перисто-кучевые, Ac - высококучевые, As - высокослоистые, Sc - слоисто-кучевые, Ns - слоисто-дождевые, Cu - кучевые, Cb - кучево-дождевые. Подробнее классификацию облаков см. в Атласе облаков (PDF).
  • T - Температура воздуха - температура, измеренная на высоте 2 м над землей.
  • Td - Температура точки росы - температура, при понижении до которой содержащийся в воздухе водяной пар достигнет насыщения.
  • f - Относительная влажность воздуха - влажноcть воздуха, измеренная на высоте 2 м над землей.
  • Te - Эффективная температура - температура, которую ощущает одетый по сезону человек в тени. Характеристика душности погоды. При расчете учитывается влияние влажности воздуха и скорости ветра на теплоощущения человека.
  • Tes - Эффективная температура на солнце - температура, которую ощущает человек, с поправкой на солнечный нагрев. Характеристика знойности погоды. Зависит от высоты солнца над горизонтом, облачности и скорости ветра. Ночью, в пасмурную погоду, а также при ветре 12 м/с и более поправка равна нулю.
  • P - Атмосферное давление - приведенное к уровню моря атмосферное давление.
  • Po - Атмосферное давление - измеренное на уровне метеостанции атмосферное давление.
  • Tmin - Минимальная температура - минимум температуры воздуха на высоте 2 м над землей.
  • Tmax - Максимальная температура - максимум температуры воздуха на высоте 2 м над землей.
  • R - Количество осадков - Количество выпавших осадков за период времени, мм. При наведении курсора мыши на число - период времени, за который выпало указанное количество осадков.
  • R24 - Количество осадков - Количество выпавших осадков за 24 часа, мм.
  • S - Снежный покров - Высота снежного покрова, см. При наведении курсора мыши на число - состояние снежного покрова и степень покрытия местности в баллах.